TimeAKDT,TemperatureF,Dew PointF,Humidity,Sea Level PressureIn,VisibilityMPH,Wind Direction,Wind SpeedMPH,Gust SpeedMPH,PrecipitationIn,Events,Conditions,WindDirDegrees,DateUTC
12:16 AM,28.4,23.0,80,29.13,10.0,ESE,3.5,-,N/A,,Overcast,120,2011-10-29 08:16:00
12:36 AM,28.4,24.8,86,29.12,10.0,ESE,4.6,-,N/A,,Overcast,110,2011-10-29 08:36:00
12:56 AM,28.4,24.8,86,29.12,10.0,ESE,3.5,-,N/A,,Overcast,110,2011-10-29 08:56:00
1:16 AM,28.4,23.0,80,29.12,10.0,East,3.5,-,N/A,,Mostly Cloudy,100,2011-10-29 09:16:00
1:36 AM,28.4,24.8,86,29.11,10.0,ESE,3.5,-,N/A,,Overcast,120,2011-10-29 09:36:00
1:56 AM,26.6,23.0,86,29.12,10.0,ESE,3.5,-,N/A,,Scattered Clouds,110,2011-10-29 09:56:00
2:16 AM,26.6,21.2,80,29.11,10.0,Calm,Calm,-,N/A,,Mostly Cloudy,0,2011-10-29 10:16:00
2:36 AM,26.6,23.0,86,29.11,10.0,ESE,3.5,-,N/A,,Mostly Cloudy,110,2011-10-29 10:36:00
2:56 AM,26.6,23.0,86,29.10,10.0,Calm,Calm,-,N/A,,Scattered Clouds,0,2011-10-29 10:56:00
3:16 AM,30.2,24.8,80,29.10,-9999.0,NE,8.1,-,N/A,,Clear,50,2011-10-29 11:16:00
3:36 AM,32.0,26.6,80,29.10,10.0,ENE,5.8,-,N/A,,Clear,70,2011-10-29 11:36:00
3:56 AM,30.2,24.8,80,29.10,10.0,East,4.6,-,N/A,,Clear,90,2011-10-29 11:56:00
4:16 AM,32.0,24.8,75,29.09,10.0,North,4.6,-,N/A,,Clear,10,2011-10-29 12:16:00
4:36 AM,33.8,24.8,70,29.08,10.0,NNE,3.5,-,N/A,,Clear,30,2011-10-29 12:36:00
4:56 AM,32.0,24.8,75,29.08,10.0,East,4.6,-,N/A,,Clear,80,2011-10-29 12:56:00
5:16 AM,32.0,24.8,75,29.08,10.0,ENE,6.9,-,N/A,,Clear,60,2011-10-29 13:16:00
5:36 AM,32.0,23.0,69,29.08,10.0,East,5.8,-,N/A,,Clear,80,2011-10-29 13:36:00
5:56 AM,32.0,23.0,69,29.08,10.0,ENE,8.1,-,N/A,,Partly Cloudy,70,2011-10-29 13:56:00
6:16 AM,32.0,21.2,64,29.08,10.0,ENE,6.9,-,N/A,,Partly Cloudy,60,2011-10-29 14:16:00
6:36 AM,30.2,21.2,69,29.07,10.0,Calm,Calm,-,N/A,,Clear,0,2011-10-29 14:36:00
6:56 AM,30.2,21.2,69,29.07,10.0,East,3.5,-,N/A,,Clear,100,2011-10-29 14:56:00
7:16 AM,30.2,21.2,69,29.06,10.0,East,3.5,-,N/A,,Clear,80,2011-10-29 15:16:00
7:36 AM,30.2,21.2,69,29.06,10.0,East,4.6,-,N/A,,Clear,80,2011-10-29 15:36:00
7:56 AM,30.2,21.2,69,29.05,10.0,East,4.6,-,N/A,,Partly Cloudy,80,2011-10-29 15:56:00
8:16 AM,30.2,21.2,69,29.05,10.0,ENE,5.8,-,N/A,,Clear,70,2011-10-29 16:16:00
8:36 AM,33.8,21.2,60,29.04,10.0,ENE,8.1,-,N/A,,Clear,60,2011-10-29 16:36:00
9:16 AM,33.8,21.2,60,29.05,10.0,ENE,8.1,-,N/A,,Partly Cloudy,70,2011-10-29 17:16:00
9:36 AM,33.8,21.2,60,29.05,10.0,ENE,4.6,-,N/A,,Scattered Clouds,70,2011-10-29 17:36:00
9:56 AM,33.8,21.2,60,29.04,10.0,ENE,6.9,-,N/A,,Overcast,60,2011-10-29 17:56:00
10:16 AM,33.8,21.2,60,29.04,10.0,NE,6.9,-,N/A,,Overcast,50,2011-10-29 18:16:00
10:36 AM,33.8,21.2,60,29.04,10.0,NE,10.4,17.3,N/A,,Overcast,50,2011-10-29 18:36:00
10:56 AM,33.8,21.2,60,29.04,10.0,ENE,11.5,17.3,N/A,,Overcast,60,2011-10-29 18:56:00
11:16 AM,33.8,21.2,60,29.04,10.0,ENE,10.4,-,N/A,,Mostly Cloudy,70,2011-10-29 19:16:00
11:36 AM,35.6,21.2,56,29.04,10.0,ENE,8.1,-,N/A,,Clear,60,2011-10-29 19:36:00
11:56 AM,35.6,21.2,56,29.04,10.0,East,5.8,-,N/A,,Clear,80,2011-10-29 19:56:00
12:16 PM,35.6,21.2,56,29.04,10.0,ENE,10.4,-,N/A,,Clear,60,2011-10-29 20:16:00
12:36 PM,35.6,21.2,56,29.04,10.0,ENE,8.1,-,N/A,,Clear,70,2011-10-29 20:36:00
12:56 PM,35.6,21.2,56,29.04,10.0,NE,12.7,17.3,N/A,,Mostly Cloudy,50,2011-10-29 20:56:00
1:16 PM,35.6,21.2,56,29.04,10.0,NE,10.4,-,N/A,,Overcast,50,2011-10-29 21:16:00
1:36 PM,35.6,21.2,56,29.04,10.0,ENE,4.6,-,N/A,,Scattered Clouds,70,2011-10-29 21:36:00
1:56 PM,37.4,21.2,52,29.04,10.0,NE,8.1,-,N/A,,Scattered Clouds,50,2011-10-29 21:56:00
2:16 PM,37.4,21.2,52,29.04,10.0,ENE,5.8,-,N/A,,Mostly Cloudy,60,2011-10-29 22:16:00
2:36 PM,37.4,21.2,52,29.04,10.0,ENE,8.1,-,N/A,,Overcast,60,2011-10-29 22:36:00
2:56 PM,37.4,21.2,52,29.04,10.0,NE,9.2,17.3,N/A,,Mostly Cloudy,50,2011-10-29 22:56:00
3:16 PM,37.4,21.2,52,29.04,10.0,ENE,6.9,-,N/A,,Scattered Clouds,70,2011-10-29 23:16:00
3:36 PM,37.4,21.2,52,29.04,10.0,East,8.1,-,N/A,,Scattered Clouds,80,2011-10-29 23:36:00
3:56 PM,37.4,21.2,52,29.04,10.0,ENE,6.9,-,N/A,,Mostly Cloudy,70,2011-10-29 23:56:00
4:16 PM,37.4,21.2,52,29.05,10.0,East,8.1,-,N/A,,Overcast,80,2011-10-30 00:16:00
4:36 PM,37.4,21.2,52,29.06,10.0,East,8.1,-,N/A,,Overcast,80,2011-10-30 00:36:00
4:56 PM,35.6,21.2,56,29.06,10.0,ESE,4.6,-,N/A,,Overcast,110,2011-10-30 00:56:00
5:16 PM,35.6,21.2,56,29.06,10.0,ESE,4.6,-,N/A,,Overcast,120,2011-10-30 01:16:00
5:36 PM,35.6,21.2,56,29.07,10.0,Calm,Calm,-,N/A,,Overcast,0,2011-10-30 01:36:00
5:56 PM,35.6,21.2,56,29.08,10.0,SE,4.6,-,N/A,,Overcast,130,2011-10-30 01:56:00
6:16 PM,33.8,21.2,60,29.09,10.0,SSE,3.5,-,N/A,,Overcast,150,2011-10-30 02:16:00
6:36 PM,33.8,21.2,60,29.09,10.0,SE,5.8,-,N/A,,Overcast,140,2011-10-30 02:36:00
6:56 PM,33.8,23.0,65,29.10,10.0,SE,4.6,-,N/A,,Overcast,130,2011-10-30 02:56:00
7:16 PM,33.8,21.2,60,29.11,10.0,Calm,Calm,-,N/A,,Overcast,0,2011-10-30 03:16:00
7:36 PM,33.8,21.2,60,29.11,-9999.0,Calm,Calm,-,N/A,,Overcast,0,2011-10-30 03:36:00
7:56 PM,33.8,21.2,60,29.12,-9999.0,Calm,Calm,-,N/A,,Overcast,0,2011-10-30 03:56:00
8:16 PM,33.8,21.2,60,29.13,-9999.0,Calm,Calm,-,N/A,,Overcast,0,2011-10-30 04:16:00
8:36 PM,33.8,21.2,60,29.14,-9999.0,Calm,Calm,-,N/A,,Overcast,0,2011-10-30 04:36:00
8:56 PM,33.8,21.2,60,29.15,-9999.0,Calm,Calm,-,N/A,,Overcast,0,2011-10-30 04:56:00
9:16 PM,32.0,23.0,69,29.16,-9999.0,Calm,Calm,-,N/A,,Overcast,0,2011-10-30 05:16:00
9:36 PM,32.0,23.0,69,29.16,-9999.0,Calm,Calm,-,N/A,,Overcast,0,2011-10-30 05:36:00
9:56 PM,32.0,23.0,69,29.17,-9999.0,Calm,Calm,-,N/A,,Overcast,0,2011-10-30 05:56:00
10:16 PM,32.0,24.8,75,29.18,-9999.0,Calm,Calm,-,N/A,,Overcast,0,2011-10-30 06:16:00
10:36 PM,33.8,23.0,65,29.18,-9999.0,Calm,Calm,-,N/A,,Overcast,0,2011-10-30 06:36:00
10:56 PM,33.8,23.0,65,29.19,10.0,Calm,Calm,-,N/A,,Overcast,0,2011-10-30 06:56:00
11:16 PM,33.8,23.0,65,29.20,10.0,Calm,Calm,-,N/A,,Overcast,0,2011-10-30 07:16:00
11:56 PM,33.8,26.6,75,29.21,-9999.0,South,5.8,-,N/A,,Overcast,190,2011-10-30 07:56:00